[[{"header":{"parameterUnit":"m.s-1","parameterCategory":1,"la1":30.2991,"la2":30.254,"lo1":-89.0895,"lo2":-89.0444,"dy":0.0017,"dx":0.0017,"nx":28,"ny":28,"refTime":"2024-08-09T21:00:00:Z","depth":0,"parameterNumber":2,"parameterNumberName":"U-component_of_WINDS"},"data":[0,0,0,0,0,0,0,0,0,0,0,0,0,0,0,0,0,0,0,0,0,0,0,0,0,0,0,0,0,0,0,0,0,0,0,0,0,0,0,0,0,0,0,0,0,0,0,0,0,0,0,0,0,0,0,0,0,0,1.183,1.1831,0,1.1922,1.1923,1.1924,1.1966,1.1966,1.1966,1.1966,1.2064,1.2067,1.2069,0,0,0,0,0,0,0,0,0,0,0,0,0,1.1692,1.1694,1.183,1.1831,1.1832,1.1922,1.1923,1.1925,1.1966,1.1966,1.1966,1.1966,1.2063,1.2066,1.2069,0,0,0,0,0,0,0,0,0,0,0,0,0,1.1765,1.1695,1.1829,1.1864,1.1867,1.1922,1.1923,1.1925,1.1966,1.1966,1.1966,1.1966,1.2062,1.2066,1.207,1.2098,0,0,1.2082,1.2084,0,0,0,0,0,0,0,0,1.1761,1.177,1.1857,1.1861,1.1866,1.1932,1.1911,1.1983,1.1966,1.1929,1.1966,1.1966,1.2021,1.2028,1.2046,1.2103,1.2107,1.2083,1.2085,1.2087,1.2088,0,0,0,0,0,0,0,1.1755,1.1766,1.1866,1.1859,1.1864,1.1875,1.1885,1.1925,1.1975,1.1932,1.1935,1.1946,1.2023,1.2042,1.2048,1.2108,1.2083,1.2086,1.2089,1.209,1.2193,1.2194,0,0,0,0,0,0,1.1744,1.1762,1.1863,1.1869,1.1812,1.1878,1.1889,1.1911,1.1974,1.1984,1.1946,1.1947,1.2035,1.2044,1.2052,1.2089,1.2087,1.2091,1.2093,1.2193,1.2194,1.2194,0,0,0,0,0,0,1.1741,1.1753,1.186,1.1816,1.1831,1.188,1.1905,1.1913,1.1932,1.1984,1.1994,1.1956,1.2035,1.2046,1.2086,1.2093,1.2092,1.2096,1.2193,1.2193,1.2194,1.2164,0,0,0,0,0,0,1.1737,1.1752,1.1762,1.1816,1.1833,1.1891,1.1905,1.1915,1.1939,1.1942,1.1996,1.2005,1.2036,1.208,1.209,1.2099,1.2099,1.2192,1.2193,1.2194,1.2165,1.2163,1.2162,0,0,0,0,0,1.1732,1.1751,1.1763,1.1775,1.1847,1.1892,1.1901,1.1935,1.1939,1.1951,1.1984,1.2003,1.2091,1.2084,1.2096,1.2106,1.2192,1.2193,1.2193,1.2165,1.2164,1.2162,0,0,0,0,0,0,1.1698,1.1759,1.1772,1.1809,1.1845,1.1899,1.1914,1.1933,1.1969,1.197,1.2012,1.2024,1.206,1.2087,1.2078,1.2136,1.2143,1.2146,1.2117,1.2117,1.2115,1.2108,1.2103,0,0,0,0,0,1.1694,1.1725,1.1777,1.1804,1.1821,1.1864,1.1885,1.1908,1.1947,1.1963,1.1999,1.2037,1.2074,1.2097,1.2133,1.2168,1.2181,1.2181,1.218,1.2179,1.2181,1.2203,1.2203,1.2196,1.2196,1.2196,0,0,1.1688,1.1725,1.1742,1.1798,1.1828,1.186,1.1877,1.1909,1.1933,1.1968,1.2008,1.2036,1.2081,1.2119,1.2138,1.2143,1.2186,1.218,1.2178,1.2182,1.2203,1.2204,1.2204,1.2197,1.2196,1.2196,0,0,1.1692,1.1723,1.1749,1.1779,1.1824,1.1853,1.1859,1.191,1.193,1.197,1.1997,1.2026,1.2087,1.2118,1.2142,1.2157,1.2177,1.2168,1.2163,1.2183,1.2183,1.2184,1.219,1.2191,1.217,1.217,1.217,0,1.1679,1.1726,1.176,1.1791,1.1815,1.1847,1.1874,1.1902,1.1957,1.1973,1.1978,1.2055,1.2088,1.2133,1.2137,1.2155,1.2164,1.2162,1.218,1.2181,1.2182,1.2188,1.219,1.2169,1.2169,1.2169,1.2169,0,1.1707,1.1739,1.1755,1.1806,1.1833,1.1861,1.1901,1.1923,1.1944,1.1972,1.2013,1.2053,1.2098,1.211,1.2131,1.2159,1.2161,1.2172,1.218,1.2181,1.2188,1.219,1.2167,1.2167,1.2168,1.2168,0,0,1.1693,1.1762,1.1767,1.1791,1.1843,1.1869,1.19,1.1942,1.1961,1.1998,1.2025,1.2075,1.2086,1.2113,1.2138,1.2155,1.2165,1.2165,1.2167,1.2164,1.2199,1.219,1.2192,1.2178,1.2179,1.2179,1.2195,0,1.1704,1.1759,1.1791,1.1833,1.1864,1.1894,1.1921,1.1956,1.1983,1.2014,1.2045,1.208,1.2091,1.2108,1.2126,1.216,1.2173,1.2159,1.2204,1.2206,1.2192,1.2195,1.2186,1.2199,1.2198,1.2198,1.2198,0,1.1725,1.176,1.1805,1.1854,1.1868,1.1891,1.1932,1.1961,1.2002,1.2021,1.205,1.2074,1.2109,1.2113,1.2161,1.2151,1.2172,1.2191,1.2192,1.2198,1.2202,1.2202,1.2204,1.2206,1.2203,1.2202,1.2202,0,1.171,1.1769,1.1803,1.1823,1.188,1.1896,1.1921,1.1961,1.1985,1.2021,1.2037,1.2077,1.21,1.2131,1.2166,1.2166,1.221,1.2218,1.2228,1.2227,1.2236,1.2235,1.2242,1.2248,1.2248,1.2248,1.2248,0,1.172,1.1746,1.1798,1.1819,1.1849,1.1886,1.1915,1.1943,1.1979,1.2006,1.2035,1.2061,1.2105,1.2137,1.2164,1.22,1.221,1.2227,1.2234,1.2224,1.2222,1.2239,1.2239,1.2249,1.2249,1.2249,1.2249,0,1.1709,1.1744,1.1784,1.1834,1.1848,1.1868,1.1912,1.1934,1.1963,1.1997,1.2008,1.2053,1.2091,1.2128,1.218,1.2199,1.2234,1.2244,1.222,1.2224,1.2232,1.2231,1.225,1.2255,1.2257,1.2257,1.2257,0,1.1713,1.1734,1.1786,1.1807,1.183,1.1862,1.1886,1.1923,1.1947,1.1995,1.2011,1.2051,1.2086,1.2145,1.2183,1.2223,1.2234,1.2238,1.224,1.223,1.2235,1.2233,1.2236,1.2237,1.2237,1.2237,1.2237,0,1.1717,1.1733,1.1765,1.1804,1.1831,1.1864,1.1898,1.1913,1.1956,1.1982,1.2021,1.2047,1.2099,1.2139,1.2183,1.221,1.2231,1.2236,1.224,1.2231,1.2216,1.2224,1.2218,1.2235,1.2235,1.2235,1.2236,1.2236,1.1714,1.1733,1.1773,1.1809,1.1838,1.1868,1.1892,1.1922,1.1955,1.2,1.202,1.2059,1.21,1.2161,1.2187,1.2219,1.2225,1.2231,1.2233,1.2234,1.2231,1.221,1.2227,1.2227,1.2227,1.2228,1.2228,0,1.1719,1.1746,1.1778,1.1824,1.1852,1.1868,1.1906,1.1928,1.1962,1.1998,1.203,1.2075,1.2114,1.2154,1.2195,1.2213,1.2224,1.2223,1.2222,1.2228,1.2224,1.2216,1.2213,1.2213,1.2213,1.2213,1.2213,1.2213,1.1725,1.1759,1.178,1.1829,1.1857,1.1894,1.1915,1.1944,1.1972,1.202,1.2052,1.2078,1.2116,1.216,1.2196,1.2207,1.2221,1.2217,1.2231,1.2227,1.2228,1.2229,1.2222,1.222,1.222,1.2232,1.2232,1.2232]},{"header":{"parameterUnit":"m.s-1","parameterCategory":1,"la1":30.2991,"la2":30.254,"lo1":-89.0895,"lo2":-89.0444,"dy":0.0017,"dx":0.0017,"nx":28,"ny":28,"refTime":"2024-08-09T21:00:00:Z","depth":0,"parameterNumber":3,"parameterNumberName":"V-component_of_WINDS"},"data":[0,0,0,0,0,0,0,0,0,0,0,0,0,0,0,0,0,0,0,0,0,0,0,0,0,0,0,0,0,0,0,0,0,0,0,0,0,0,0,0,0,0,0,0,0,0,0,0,0,0,0,0,0,0,0,0,0,0,1.0865,1.0866,0,1.0937,1.0938,1.0939,1.091,1.0908,1.0907,1.0905,1.0978,1.0981,1.0985,0,0,0,0,0,0,0,0,0,0,0,0,0,1.0701,1.0704,1.0865,1.0866,1.0867,1.0937,1.0938,1.0939,1.091,1.0908,1.0906,1.0904,1.0977,1.0981,1.0985,0,0,0,0,0,0,0,0,0,0,0,0,0,1.0772,1.0705,1.0865,1.0861,1.0862,1.0937,1.0938,1.0939,1.0911,1.0908,1.0906,1.0903,1.0975,1.098,1.0986,1.1069,0,0,1.1002,1.1004,0,0,0,0,0,0,0,0,1.0768,1.0778,1.0861,1.0862,1.0862,1.0912,1.0907,1.0983,1.0911,1.0892,1.0905,1.0902,1.0958,1.0964,1.0983,1.1072,1.1075,1.1002,1.1005,1.1008,1.1009,0,0,0,0,0,0,0,1.0763,1.0775,1.0894,1.0862,1.0863,1.0855,1.0862,1.0921,1.0938,1.0894,1.0892,1.0901,1.0958,1.0978,1.0985,1.1076,1.1002,1.1007,1.101,1.1012,1.1232,1.1234,0,0,0,0,0,0,1.0759,1.0771,1.0891,1.0896,1.0808,1.086,1.0868,1.0899,1.0938,1.0941,1.0903,1.0899,1.0971,1.0979,1.0987,1.1084,1.1008,1.1012,1.1016,1.1229,1.1233,1.1235,0,0,0,0,0,0,1.0755,1.077,1.0889,1.0833,1.0848,1.0866,1.09,1.0901,1.0922,1.0944,1.0947,1.0921,1.0969,1.098,1.1048,1.1086,1.1015,1.102,1.1226,1.123,1.1234,1.1279,0,0,0,0,0,0,1.0751,1.0769,1.0801,1.0834,1.0851,1.0949,1.0902,1.0905,1.0931,1.0927,1.0962,1.0965,1.0968,1.104,1.1053,1.1092,1.1024,1.1223,1.1228,1.1233,1.1274,1.1284,1.1293,0,0,0,0,0,1.0745,1.0812,1.0803,1.0818,1.0892,1.0951,1.096,1.0962,1.0935,1.0966,1.098,1.0964,1.108,1.1047,1.1062,1.1103,1.122,1.1226,1.1232,1.127,1.1282,1.1292,0,0,0,0,0,0,1.0783,1.0816,1.0807,1.0886,1.0916,1.0946,1.0986,1.0975,1.1013,1.1008,1.1008,1.1016,1.1085,1.1101,1.1064,1.1183,1.1146,1.1155,1.117,1.1181,1.119,1.1184,1.1028,0,0,0,0,0,1.0801,1.0847,1.0873,1.0941,1.0956,1.0969,1.0995,1.0993,1.1024,1.1036,1.1055,1.1085,1.1127,1.1156,1.1197,1.1277,1.1282,1.1312,1.1321,1.1329,1.1336,1.1375,1.1388,1.1255,1.1255,1.1255,0,0,1.0838,1.0862,1.0891,1.0949,1.0972,1.1017,1.098,1.1031,1.1064,1.1044,1.1108,1.1123,1.1156,1.1229,1.1262,1.1244,1.1374,1.1336,1.1342,1.1345,1.1383,1.1395,1.1406,1.1259,1.1259,1.1258,0,0,1.0928,1.0953,1.1009,1.1033,1.1067,1.1075,1.1089,1.112,1.1129,1.1193,1.1178,1.1217,1.1292,1.1315,1.1336,1.1433,1.1418,1.1446,1.1493,1.1532,1.1542,1.1551,1.1582,1.1593,1.1454,1.1454,1.1454,0,1.097,1.1039,1.104,1.1091,1.1116,1.11,1.1156,1.1178,1.1225,1.1241,1.1221,1.1312,1.1333,1.1409,1.1432,1.1452,1.1465,1.1441,1.1541,1.155,1.1558,1.1588,1.16,1.1457,1.1456,1.1456,1.1456,0,1.1086,1.1134,1.1176,1.122,1.125,1.1304,1.1311,1.1341,1.1337,1.1346,1.141,1.1435,1.1478,1.1497,1.1494,1.1572,1.1559,1.154,1.1502,1.1574,1.1601,1.1613,1.1461,1.146,1.1459,1.1458,0,0,1.1203,1.1245,1.126,1.1278,1.1314,1.135,1.1402,1.1445,1.1468,1.1501,1.1542,1.1605,1.1586,1.161,1.161,1.1644,1.1714,1.162,1.162,1.1633,1.1797,1.1808,1.1822,1.1705,1.1707,1.1709,1.1793,0,1.1292,1.1383,1.1385,1.1468,1.151,1.1494,1.1539,1.1565,1.1575,1.1611,1.1622,1.1664,1.1639,1.1652,1.1686,1.1698,1.1746,1.1693,1.1741,1.1743,1.173,1.1837,1.185,1.1928,1.1804,1.1806,1.1807,0,1.141,1.1444,1.1531,1.1557,1.1575,1.1615,1.1652,1.1689,1.1717,1.1721,1.1747,1.1741,1.1791,1.1754,1.1822,1.1786,1.1806,1.1815,1.1818,1.182,1.1777,1.1838,1.1953,1.1963,1.1824,1.1823,1.1822,0,1.1481,1.1549,1.1609,1.1625,1.1659,1.1687,1.1702,1.1728,1.1752,1.1785,1.18,1.1839,1.1859,1.1888,1.1891,1.1864,1.1958,1.1922,1.1961,1.1961,1.198,1.1978,1.2096,1.1998,1.1998,1.1998,1.1997,0,1.1579,1.1632,1.164,1.1677,1.1734,1.1735,1.1792,1.1805,1.1828,1.1865,1.1855,1.189,1.1893,1.1929,1.1932,1.1985,1.1996,1.1999,1.1998,1.1998,1.1997,1.2009,1.2002,1.2001,1.2,1.2,1.1999,0,1.1667,1.1676,1.1739,1.1765,1.1773,1.1814,1.1835,1.1869,1.1878,1.1925,1.1936,1.1949,1.199,1.1996,1.2045,1.2046,1.211,1.2106,1.21,1.2098,1.2135,1.213,1.2262,1.2278,1.2174,1.2175,1.2175,0,1.1728,1.1767,1.1797,1.1821,1.1838,1.1877,1.1901,1.1903,1.1929,1.1962,1.1991,1.2031,1.2063,1.2129,1.2142,1.2178,1.2173,1.2216,1.2178,1.2175,1.2169,1.2165,1.2167,1.2223,1.2224,1.2225,1.2226,0,1.1833,1.1834,1.187,1.1906,1.1935,1.1964,1.1991,1.2011,1.2016,1.2045,1.2087,1.2111,1.216,1.2198,1.2234,1.2248,1.2237,1.2238,1.2248,1.2247,1.224,1.224,1.2116,1.2234,1.2233,1.2233,1.2232,1.2232,1.1907,1.194,1.1965,1.2004,1.2024,1.2049,1.2081,1.2093,1.2128,1.2167,1.2166,1.2211,1.2235,1.2282,1.2298,1.2332,1.2318,1.2334,1.2337,1.234,1.2342,1.2237,1.2339,1.2339,1.2339,1.2339,1.2338,0,1.2008,1.2023,1.2059,1.2096,1.2126,1.2114,1.2143,1.2168,1.2207,1.2232,1.2262,1.2308,1.2345,1.2361,1.2396,1.242,1.2416,1.2429,1.2426,1.2428,1.2355,1.234,1.2432,1.2432,1.2432,1.2432,1.2432,1.2432,1.2064,1.2118,1.2122,1.2186,1.2201,1.2244,1.2261,1.2283,1.2302,1.2353,1.2384,1.2394,1.2413,1.245,1.2482,1.2486,1.2498,1.2513,1.2514,1.2444,1.2434,1.2425,1.2411,1.2516,1.2516,1.2584,1.2585,1.2585]}]]